Time,TemperatureF,DewpointF,PressureIn,WindDirection,WindDirectionDegrees,WindSpeedMPH,WindSpeedGustMPH,Humidity,HourlyPrecipIn,Conditions,Clouds,dailyrainin,SoftwareType,DateUTC
2013-10-23 00:04:00,27.0,24.0,-100.00,West,280,2.0,4.0,85,0.00,,,-99.99,,2013-10-23 04:04:00,
2013-10-23 00:14:00,27.0,24.0,-100.00,West,280,2.0,4.0,85,0.00,,,-99.99,,2013-10-23 04:14:00,
2013-10-23 00:55:00,29.0,24.0,-100.00,WSW,255,2.0,4.0,79,0.00,,,-99.99,,2013-10-23 04:55:00,
2013-10-23 01:04:00,29.0,24.0,-100.00,WSW,255,2.0,4.0,79,0.00,,,-99.99,,2013-10-23 05:04:00,
2013-10-23 01:13:00,29.0,24.0,-100.00,WSW,255,2.0,4.0,79,0.00,,,-99.99,,2013-10-23 05:13:00,
2013-10-23 01:53:00,30.0,23.0,-100.00,West,275,2.0,4.0,75,0.00,,,-99.99,,2013-10-23 05:53:00,
2013-10-23 02:02:00,30.0,23.0,-100.00,West,275,2.0,4.0,75,0.00,,,-99.99,,2013-10-23 06:02:00,
2013-10-23 02:12:00,30.0,23.0,-100.00,West,275,2.0,4.0,75,0.00,,,-99.99,,2013-10-23 06:12:00,
2013-10-23 02:52:00,27.0,22.0,-100.00,WNW,295,0.0,0.0,81,0.00,,,-99.99,,2013-10-23 06:52:00,
2013-10-23 03:01:00,27.0,22.0,-100.00,WNW,295,0.0,0.0,81,0.00,,,-99.99,,2013-10-23 07:01:00,
2013-10-23 03:12:00,27.0,22.0,-100.00,WNW,295,0.0,0.0,81,0.00,,,-99.99,,2013-10-23 07:12:00,
2013-10-23 03:52:00,26.0,22.0,-100.00,NW,320,0.0,3.0,84,0.00,,,-99.99,,2013-10-23 07:52:00,
2013-10-23 04:02:00,26.0,22.0,-100.00,NW,320,0.0,3.0,84,0.00,,,-99.99,,2013-10-23 08:02:00,
2013-10-23 04:12:00,26.0,22.0,-100.00,NW,320,0.0,3.0,84,0.00,,,-99.99,,2013-10-23 08:12:00,
2013-10-23 04:53:00,26.0,22.0,-100.00,West,270,2.0,4.0,84,0.00,,,-99.99,,2013-10-23 08:53:00,
2013-10-23 05:02:00,26.0,22.0,-100.00,West,270,2.0,4.0,84,0.00,,,-99.99,,2013-10-23 09:02:00,
2013-10-23 05:12:00,26.0,22.0,-100.00,West,270,2.0,4.0,84,0.00,,,-99.99,,2013-10-23 09:12:00,
2013-10-23 05:53:00,29.0,22.0,-100.00,West,280,3.0,6.0,76,0.00,,,-99.99,,2013-10-23 09:53:00,
2013-10-23 06:03:00,29.0,22.0,-100.00,West,280,3.0,6.0,76,0.00,,,-99.99,,2013-10-23 10:03:00,
2013-10-23 06:12:00,29.0,22.0,-100.00,West,280,3.0,6.0,76,0.00,,,-99.99,,2013-10-23 10:12:00,
2013-10-23 06:53:00,30.0,23.0,-100.00,WNW,290,3.0,7.0,74,0.00,,,-99.99,,2013-10-23 10:53:00,
2013-10-23 07:02:00,30.0,23.0,-100.00,WNW,290,3.0,7.0,74,0.00,,,-99.99,,2013-10-23 11:02:00,
2013-10-23 07:12:00,30.0,23.0,-100.00,WNW,290,3.0,7.0,74,0.00,,,-99.99,,2013-10-23 11:12:00,
2013-10-23 07:52:00,31.0,24.0,-100.00,WNW,285,4.0,9.0,77,0.00,,,-99.99,,2013-10-23 11:52:00,
2013-10-23 08:01:00,31.0,24.0,-100.00,WNW,285,4.0,9.0,77,0.00,,,-99.99,,2013-10-23 12:01:00,
2013-10-23 08:12:00,31.0,24.0,-100.00,WNW,285,4.0,9.0,77,0.00,,,-99.99,,2013-10-23 12:12:00,
2013-10-23 08:52:00,31.0,25.0,-100.00,West,275,6.0,9.0,79,0.00,,,-99.99,,2013-10-23 12:52:00,
2013-10-23 09:01:00,31.0,25.0,-100.00,West,275,6.0,9.0,79,0.00,,,-99.99,,2013-10-23 13:01:00,
2013-10-23 09:12:00,31.0,25.0,-100.00,West,275,6.0,9.0,79,0.00,,,-99.99,,2013-10-23 13:12:00,
2013-10-23 09:52:00,31.0,25.0,-100.00,West,280,6.0,10.0,78,0.00,,,-99.99,,2013-10-23 13:52:00,
2013-10-23 10:02:00,31.0,25.0,-100.00,West,280,6.0,10.0,78,0.00,,,-99.99,,2013-10-23 14:02:00,
2013-10-23 10:11:00,31.0,25.0,-100.00,West,280,6.0,10.0,78,0.00,,,-99.99,,2013-10-23 14:11:00,
2013-10-23 10:52:00,32.0,24.0,-100.00,West,280,5.0,12.0,74,0.00,,,-99.99,,2013-10-23 14:52:00,
2013-10-23 11:01:00,32.0,24.0,-100.00,West,280,5.0,12.0,74,0.00,,,-99.99,,2013-10-23 15:01:00,
2013-10-23 11:11:00,32.0,24.0,-100.00,West,280,5.0,12.0,74,0.00,,,-99.99,,2013-10-23 15:11:00,